GFSNE_con_lsi_090.txt.gz
Lid_Strength_Index
8 8 6 8 7 7 7 6 6 8 7 9 10 9 9 9 8 9 10 6 5 5 5 4 4 4 4 3 2 2 1 -0 -1 -2 -1 -1 -1 -1
8 9 9 8 8 8 8 7 6 6 7 8 9 9 10 9 8 10 9 9 6 5 6 5 5 5 4 4 4 3 2 1 -0 -1 -1 -1 -1 -1
10 10 9 10 10 9 9 8 7 7 8 10 10 10 10 10 10 10 10 12 12 7 7 6 6 5 5 5 5 4 3 2 1 0 -1 -1 -1 -1
10 9 9 8 8 8 8 8 8 8 8 9 10 11 11 10 10 10 10 12 13 9 8 8 7 7 7 7 7 6 5 4 3 2 2 -0 -1 -1
10 10 9 8 8 8 8 8 8 8 8 9 11 10 10 11 12 12 13 14 14 11 11 10 8 7 8 8 8 7 6 5 4 4 3 2 2 0
11 11 9 9 9 9 9 10 9 9 9 9 10 11 11 13 13 13 15 15 15 15 14 11 11 10 9 9 8 8 8 7 5 5 4 5 4 3
9 10 9 9 9 9 10 11 11 11 10 11 11 12 13 14 15 15 16 16 16 17 16 15 15 15 14 11 10 9 8 8 7 6 6 5 5 4
11 11 11 11 10 9 9 10 11 12 13 14 13 13 15 16 16 16 18 18 18 17 16 16 15 16 15 14 9 8 8 8 8 8 7 7 6 6
11 12 13 12 13 13 11 11 11 11 12 14 14 15 15 15 16 17 17 17 17 16 17 18 16 16 15 14 9 9 9 8 8 8 8 8 8 7
12 13 13 15 15 15 15 16 16 15 15 14 15 15 15 15 15 15 16 17 16 16 16 18 17 17 16 15 10 10 9 9 9 9 8 8 8 7
13 13 14 15 13 11 16 16 16 15 12 11 11 11 11 12 13 15 16 16 17 17 16 17 17 18 17 16 15 11 11 10 10 10 10 9 9 10
14 15 11 13 11 11 16 17 17 16 15 15 15 15 14 13 12 15 15 19 18 18 16 18 18 19 20 17 16 16 16 12 12 11 11 11 10 13
16 16 15 10 10 10 11 16 16 16 14 16 17 17 16 15 15 15 15 18 20 20 15 19 23 20 20 19 18 17 17 17 16 16 13 12 12 12
16 16 16 11 10 10 12 12 12 13 16 17 17 17 16 16 16 15 15 16 16 17 15 17 19 19 21 21 20 18 18 18 18 17 17 15 14 13
16 15 13 12 11 12 11 11 11 15 16 17 17 17 16 16 16 17 17 17 18 16 14 16 17 18 19 21 20 19 19 19 19 21 18 18 18 17
12 14 13 13 12 13 13 14 15 15 16 17 17 17 17 18 18 17 19 20 20 19 16 18 19 18 19 19 20 21 20 21 20 19 18 18 17 17
14 15 16 16 16 16 16 16 16 16 16 18 19 18 17 17 17 18 20 22 22 22 20 18 16 17 18 19 20 19 19 20 20 20 19 20 19 18
13 15 17 17 16 16 16 16 17 16 18 17 18 18 17 17 17 19 22 22 23 22 22 20 20 19 19 17 15 19 20 21 21 20 19 20 21 18
12 13 15 16 16 16 16 17 17 17 18 18 18 18 18 18 16 19 20 20 21 21 21 22 23 23 23 21 17 14 21 20 22 20 19 19 20 17
13 14 15 15 15 16 16 17 17 19 18 18 18 18 19 19 19 18 19 19 19 19 20 21 21 22 21 20 19 16 14 21 21 22 22 18 16 13
13 14 14 14 15 15 16 16 16 17 18 18 17 17 17 18 18 18 18 16 17 18 19 19 18 16 21 20 20 18 16 13 15 20 24 22 19 17
13 13 14 14 15 15 16 16 16 16 17 17 17 16 16 17 17 17 17 17 17 16 17 18 20 22 23 20 19 17 16 15 14 12 13 14 20 20
13 14 14 14 14 14 15 15 15 14 14 14 15 15 16 16 16 16 16 16 17 18 18 19 18 18 20 20 18 18 17 16 16 17 16 13 12 12

GFSNE_con_lsi_093.txt.gz
Lid_Strength_Index
6 6 5 5 5 5 4 5 7 9 7 7 8 7 7 7 7 7 8 6 6 6 5 4 4 4 4 5 4 2 1 1 0 -1 -2 -1 -1 -1
7 6 6 6 6 6 6 6 5 7 8 7 8 8 7 7 7 8 8 8 7 6 6 5 5 5 6 5 5 4 3 2 0 -1 -2 -1 -1 -1
8 7 7 7 7 6 6 5 5 5 6 8 8 8 8 7 8 8 10 10 9 8 7 6 6 6 6 7 6 5 4 3 2 1 -1 -1 -1 -1
9 8 7 7 7 6 6 6 6 5 6 6 8 8 8 8 9 10 11 12 11 8 7 8 8 8 8 8 7 6 5 4 3 2 2 -0 -1 -1
8 8 7 7 7 7 7 7 7 7 6 6 8 8 9 9 10 11 12 13 13 11 10 9 8 9 9 8 7 7 6 5 4 4 3 3 2 -1
8 8 8 8 8 8 8 8 8 8 8 7 8 9 10 11 11 12 13 13 12 13 13 12 11 11 9 8 8 8 7 6 5 4 4 4 4 3
8 9 8 8 8 8 9 9 10 10 9 9 10 11 11 12 12 13 12 12 13 13 13 13 13 12 10 9 8 8 8 8 7 6 5 5 4 4
9 9 9 10 9 9 9 10 10 10 11 11 11 11 12 12 12 12 13 14 14 14 14 14 12 12 12 10 9 9 8 8 8 7 7 6 6 5
9 10 12 11 11 10 10 11 11 10 11 11 10 11 11 11 12 13 14 14 15 14 14 14 13 13 13 12 10 9 9 8 8 8 7 8 7 7
10 11 12 13 12 12 12 13 13 12 12 12 12 12 12 12 12 12 13 14 14 14 14 14 14 14 13 12 10 10 9 9 9 8 8 8 8 7
11 12 12 13 12 11 13 14 14 13 11 11 11 11 11 11 12 13 14 14 15 14 13 14 15 15 14 13 13 10 11 11 10 10 10 9 9 10
12 13 11 12 11 10 13 14 15 14 13 13 14 13 12 11 12 13 13 14 14 15 14 14 15 15 15 14 13 13 13 12 12 12 11 10 10 10
13 13 12 10 10 9 11 14 14 14 13 14 14 15 14 14 13 13 13 13 14 14 14 15 16 16 16 15 15 14 14 14 14 14 12 12 12 11
13 13 13 11 9 9 10 12 12 13 14 15 15 16 15 14 13 13 13 13 13 14 13 14 15 15 15 16 16 15 15 15 14 14 14 14 14 13
13 13 12 11 10 10 10 10 11 13 14 15 15 15 14 13 13 14 14 14 14 14 14 15 14 16 15 16 16 16 15 15 15 15 15 15 15 14
11 11 11 11 11 11 11 11 13 13 14 14 15 14 14 15 15 14 14 15 15 15 14 15 15 15 16 16 16 16 16 16 15 15 15 15 14 14
12 13 13 13 14 13 13 14 14 14 14 14 15 15 15 15 15 15 15 16 16 16 16 15 14 15 15 15 16 16 16 16 15 16 16 16 15 14
12 14 14 14 14 14 14 15 15 15 15 14 15 15 15 15 15 15 15 15 16 16 16 16 15 15 15 15 14 15 15 16 15 16 16 16 16 14
11 12 13 14 14 15 14 14 14 15 15 15 15 15 15 15 15 15 16 16 16 16 16 17 17 17 18 18 15 13 15 15 15 15 15 15 16 14
11 11 12 13 13 14 14 14 14 14 15 15 16 15 16 15 16 15 16 16 16 16 17 17 18 17 17 17 17 15 13 14 15 15 15 14 14 13
11 12 12 12 13 13 13 13 14 14 15 15 15 16 16 16 16 15 15 15 15 16 16 16 15 14 16 16 17 16 14 13 13 14 14 15 15 15
12 12 12 12 12 13 13 13 14 14 14 15 15 15 15 15 15 15 15 15 14 14 15 14 15 16 17 17 16 16 15 14 13 12 11 13 14 16
11 11 12 12 12 12 13 13 14 14 14 14 14 14 14 15 15 14 14 14 14 14 14 15 15 16 16 16 16 16 16 16 15 15 14 12 11 11

GFSNE_con_lsi_096.txt.gz
Lid_Strength_Index
4 4 3 3 3 3 4 4 6 8 7 5 5 6 6 6 7 7 7 6 5 4 4 4 4 5 6 5 4 4 4 3 1 0 -1 -2 -2 -2
4 4 4 4 4 4 4 4 5 6 8 5 4 4 5 6 6 6 7 6 5 5 5 5 6 6 6 6 5 5 5 3 2 1 -1 -1 -1 -1
6 5 5 5 5 5 5 5 5 4 5 4 6 6 6 6 7 7 8 8 7 6 6 6 6 7 7 7 7 6 5 4 2 1 -0 -1 -1 -1
6 6 5 6 5 5 5 4 4 4 5 6 7 7 7 7 7 9 10 10 8 7 7 7 7 8 8 8 8 7 6 4 3 2 2 -0 -1 -1
5 5 5 5 4 4 5 5 5 5 5 6 6 7 8 8 9 9 11 11 11 10 10 8 7 8 9 9 9 8 7 5 4 3 3 3 2 -1
6 5 5 5 5 5 6 6 7 7 6 7 7 8 8 10 10 11 12 12 12 11 11 11 10 10 9 9 9 9 7 6 5 4 4 4 4 2
6 6 6 7 8 7 6 6 7 8 8 8 9 9 10 12 11 11 11 12 11 10 11 11 11 11 10 10 9 8 8 7 6 5 5 5 4 4
7 7 7 8 8 8 9 9 9 8 8 9 9 10 10 11 12 12 10 11 11 11 13 13 12 12 11 10 9 8 8 7 7 7 7 6 6 5
7 7 8 9 9 8 9 10 11 10 10 8 9 10 10 11 10 10 10 11 12 12 13 13 12 13 11 10 9 9 9 8 8 8 7 7 7 7
7 7 8 10 11 10 10 11 11 11 10 11 10 8 8 9 9 9 10 12 12 13 12 13 13 13 12 10 10 9 9 9 9 9 9 8 8 7
7 8 9 11 11 11 11 12 12 11 10 10 11 11 11 11 11 11 13 13 13 13 13 12 13 13 12 12 11 11 11 11 10 10 10 9 10 9
9 10 10 11 10 10 11 12 12 12 12 11 11 11 10 11 12 11 11 12 13 13 12 12 13 13 13 12 12 12 11 12 12 11 11 10 10 10
9 11 11 9 10 9 10 11 12 11 12 12 13 12 12 12 12 12 12 11 12 12 12 12 13 13 14 14 13 13 13 12 12 12 11 12 11 11
10 9 9 10 9 9 9 10 12 12 12 13 13 13 13 13 13 12 12 12 12 12 12 12 13 13 14 14 14 13 13 13 13 13 13 13 13 13
10 11 11 10 9 9 9 9 10 11 13 13 14 13 13 12 12 13 13 13 13 12 12 13 13 14 14 14 14 14 14 13 13 14 13 13 13 13
10 11 11 11 10 9 9 10 10 11 12 13 13 12 13 13 13 12 13 13 13 13 13 13 13 14 14 14 14 14 14 14 14 13 13 13 13 13
10 11 12 12 12 12 11 11 11 12 12 12 13 13 14 13 13 13 13 13 14 14 14 14 13 13 13 14 14 14 14 14 13 13 14 14 13 13
11 12 13 12 12 13 12 12 12 13 13 12 13 13 14 14 13 13 13 13 14 13 14 13 14 14 14 13 13 14 13 14 13 13 14 15 14 12
11 12 12 11 12 12 12 12 13 13 12 13 13 13 13 13 14 14 14 14 14 14 14 14 14 15 16 16 14 13 14 13 14 14 14 14 14 13
10 11 11 11 11 11 12 12 12 12 13 13 13 13 13 13 14 14 14 14 14 14 14 14 15 15 15 15 15 14 13 13 14 14 13 13 13 12
10 10 10 10 10 10 11 11 11 12 13 13 13 13 13 13 14 14 13 14 14 14 15 14 13 12 13 14 15 15 13 12 12 12 12 13 13 13
10 10 10 10 10 11 11 11 12 12 12 13 13 13 13 13 14 14 14 14 13 13 13 12 13 13 14 15 15 14 13 12 12 12 12 12 13 15
10 11 10 10 10 11 11 11 12 12 12 12 12 13 13 13 13 13 13 12 13 13 13 13 13 13 14 14 14 14 14 14 13 13 12 11 11 11

GFSNE_con_lsi_099.txt.gz
Lid_Strength_Index
3 3 3 3 2 3 3 3 5 7 7 5 5 6 6 6 7 6 5 4 4 3 3 3 3 4 4 4 5 4 4 4 2 1 1 -0 -2 -2
4 4 3 3 3 3 3 4 4 5 7 5 5 5 5 5 6 6 7 6 5 4 4 4 4 5 6 6 6 6 5 4 3 2 1 -1 -2 -1
5 4 4 3 4 4 4 4 4 4 6 5 5 6 5 6 7 7 8 7 6 5 5 5 6 6 7 7 7 6 5 5 4 3 1 -0 -1 -1
6 5 5 4 4 4 4 4 5 5 5 6 6 7 7 7 7 9 10 9 8 6 6 6 7 7 7 8 7 8 7 5 5 3 2 1 -1 -1
5 5 5 5 5 5 5 6 5 6 5 6 7 6 7 8 9 9 11 11 10 9 9 8 7 8 8 8 8 8 7 6 6 4 3 3 2 -1
6 6 5 5 5 5 5 6 6 6 6 6 6 7 8 9 9 11 12 11 12 11 11 10 10 10 9 8 8 8 8 8 6 4 4 4 4 2
6 6 6 6 7 7 6 6 7 7 7 7 8 9 10 11 11 10 11 12 12 11 11 12 12 12 11 9 9 8 8 7 6 5 4 5 5 4
6 7 7 8 8 8 8 9 8 7 8 8 9 10 10 10 11 12 11 12 12 12 13 13 13 13 12 11 9 9 8 8 7 6 6 6 5 5
7 7 7 8 8 9 8 9 9 10 10 8 9 9 10 10 11 11 11 12 13 13 13 14 13 13 12 10 9 9 9 8 8 7 7 6 6 6
7 7 8 9 9 9 9 11 11 11 10 11 10 8 8 8 9 10 11 12 13 14 14 15 14 14 13 12 9 9 9 9 9 8 8 8 7 7
7 7 7 9 9 9 10 12 12 11 10 10 10 10 9 9 10 12 14 14 15 15 14 14 15 15 14 13 12 10 10 10 10 10 10 9 9 9
7 8 8 9 9 9 11 12 13 12 12 12 11 11 10 11 11 12 13 14 14 15 14 15 15 15 16 13 13 12 12 12 12 12 10 11 10 11
9 10 10 9 9 9 9 11 12 11 11 12 13 13 12 13 14 14 13 13 14 15 14 14 15 15 15 15 14 14 14 14 14 13 11 11 11 11
9 9 9 9 9 9 9 10 11 11 12 13 13 14 14 14 14 14 13 13 13 13 13 14 16 16 16 16 16 15 15 15 15 15 14 13 12 12
9 9 8 9 8 9 8 9 10 12 13 14 14 14 13 13 14 15 14 14 15 14 14 16 15 17 17 17 17 16 16 16 15 16 15 15 15 14
9 11 11 10 9 9 9 9 11 12 13 13 14 13 13 14 14 14 15 15 16 16 14 16 17 17 17 17 17 17 16 18 17 16 16 15 15 14
10 12 12 12 12 12 11 11 11 12 13 13 14 14 14 14 14 14 15 15 16 16 16 16 15 15 16 18 18 17 17 17 16 16 16 17 16 15
11 12 13 13 13 13 12 12 12 12 13 13 13 13 14 14 14 14 15 15 16 16 16 16 17 17 17 15 14 17 17 17 16 16 16 19 18 15
11 11 12 12 13 12 12 12 13 13 13 13 13 13 13 14 14 15 15 15 16 16 16 16 17 19 20 19 16 12 18 17 17 17 17 17 18 15
10 11 11 11 11 12 12 12 12 13 13 13 13 13 14 14 15 15 15 15 16 16 16 16 18 17 19 19 18 16 12 17 17 18 17 16 14 11
10 10 11 11 11 11 11 12 12 12 13 13 14 14 13 14 15 15 15 14 14 16 16 16 15 13 17 18 19 17 15 12 13 17 17 16 16 15
9 10 10 10 10 10 11 11 12 12 12 13 13 13 13 14 14 14 14 15 15 15 16 17 16 16 18 19 19 18 16 14 12 11 11 12 15 16
9 9 9 9 9 10 10 11 11 12 12 12 13 13 13 14 14 14 14 14 14 15 15 15 15 16 15 15 15 18 17 16 15 15 13 11 11 11